Regional Weather Roundup
Issued by NWS Midland/Odessa, TX

Skip options and go directly to product.
Home | Oldest Version | Previous Version | Current Version | All | Graphics & Text | Save Text | Print | Product List | Glossary On

Skip product version selection by date and time.   
292
ASUS44 KMAF 201610
RWRMAF
MIDLAND AREA WEATHER ROUNDUP
NATIONAL WEATHER SERVICE MIDLAND TX
1000 AM CST MON FEB 20 2017

...IN SOUTHWEST TEXAS AND SOUTHEAST NEW MEXICO...

CITY           SKY/WX    TMP DP  RH WIND       PRES   REMARKS
ALPINE         SUNNY     54  32  43 W12G18    30.16S
ANDREWS        FAIR      57  32  38 W22G30    30.00R
ARTESIA        SUNNY     55  34  44 W15       30.07R
BIG SPRING     SUNNY     56  36  45 W12       30.02R
CARLSBAD       SUNNY     58  34  40 W23       30.03R
DRYDEN           N/A     60  39  45 SW17      30.05R
FORT STOCKTON  SUNNY     59  35  40 W23G31    30.06R
GUAD PASS      SUNNY     42  35  76 SW33      30.13R WCI  31
HOBBS          SUNNY     54  32  43 W25       30.03R
MARFA          SUNNY     49  33  54 W23G30    30.16R
MIDLAND AIRPK  SUNNY     57  35  44 W14G21    30.02R
MIDLAND INTL   SUNNY     58  35  42 W18       30.01R
ODESSA         SUNNY     57  32  38 W20       30.02R
PECOS          SUNNY     59  35  40 W23G29    30.05R
PRESIDIO       FAIR      59  34  38 W20G26    30.18S
SEMINOLE       SUNNY     56  32  40 W26G36    30.00R
SNYDER         SUNNY     54  36  51 W10       29.97R
WINK           SUNNY     57  35  43 W17       30.02R
$$
...OTHER STATIONS IN TEXAS...

CITY           SKY/WX    TMP DP  RH WIND       PRES   REMARKS
ABILENE        CLOUDY    57  43  59 W7        29.97R
AMARILLO       SUNNY     55  32  41 N23G29    29.94R
AUSTIN         CLOUDY    61  61 100 W3        30.00R
BROWNSVILLE    CLOUDY    69  66  90 NW10      30.00R
CORPUS CHRISTI LGT RAIN  64  63  96 E8        30.02R
DALLAS FTW     CLOUDY    60  58  92 S12       29.96R
DEL RIO        SUNNY     65  45  48 NW8       30.05R
EL PASO        MOSUNNY   52  34  50 W16G24    30.18R
HOUSTON INT    RAIN      62  60  93 N7        30.04R FOG
LUBBOCK        MOSUNNY   57  34  41 NW29G35   29.92R
SAN ANGELO     SUNNY     59  41  51 W14       30.01R
SAN ANTONIO    CLOUDY    60  58  92 NE3       30.03R
WACO           CLOUDY    59  57  93 MISG      30.01R
WICHITA FALLS  NOT AVBL
$$
...OTHER LOCATIONS IN NEW MEXICO...

CITY           SKY/WX    TMP DP  RH WIND       PRES   REMARKS
ALAMAGORDO     SUNNY     52  30  43 N15       30.18R
ALBUQUERQUE    MOSUNNY   46  33  60 W3        30.22R
CANNON AFB     SUNNY     54  27  36 N20G25    30.01R
CLOVIS         MOSUNNY   52  30  43 N20       30.00R
HOLLOMAN AFB   SUNNY     50  32  49 N8        30.22R
ROSWELL        SUNNY     59  29  31 NW20G33     N/A
RUIDOSO        SUNNY     39  27  60 NW24G32   30.18R WCI  28
SANTA FE       SUNNY     43  31  62 N10       30.18R WCI  37
TRUTH OR CONSE SUNNY     50  30  46 NE3       30.19R
TUCUMCARI      MOSUNNY   54  31  41 N13       30.02R
$$